{"data":{"norad_id":51841,"epoch":"2026-05-25T00:29:55.775616Z","epoch_age_seconds":73547,"freshness":"FRESH","line1":"1 51841U 22019T   26145.02078444  .00584915  15795-3  10413-2 0  9993","line2":"2 51841  97.3581 241.6153 0007775 226.5467 133.5166 16.01791082236432","mean_motion":16.01791082,"eccentricity":0.0007775,"inclination_deg":97.3581,"raan_deg":241.6153,"arg_perigee_deg":226.5467,"mean_anomaly_deg":133.5166,"bstar":0.0010413,"rev_number":23643,"period_min":89.899364291753,"perigee_km":264.29012547637,"apogee_km":274.62713668269,"semimajor_km":6647.5956310795,"source":"CELESTRAK","updated_at":"2026-05-25T13:37:57.536754Z"}}